EW9688 Weather Reports


Display with metric or nautical units.
time (UTC)temp
F
wind
direction
speed
MPH
gust
MPH
rain 1hr
in
rain 24hr
in
rain mn
in
humidity
%
barometer
mb
20230202015337 34 257 2.0 3.0 0.00 0.00 0.00 45 1017.4
20230202014317 34 159 1.0 3.0 0.00 0.00 0.00 46 1017.5
20230202013338 35 101 2.0 2.0 0.00 0.00 0.00 44 1017.4
20230202012321 35 120 2.0 3.0 0.00 0.00 0.00 41 1017.4
20230202011341 35 166 1.0 4.0 0.00 0.00 0.00 45 1017.4
20230202010339 35 309 1.0 3.0 0.00 0.00 0.00 45 1017.3
20230202005338 36 277 3.0 5.0 0.00 0.00 0.00 42 1017.2
20230202004338 36 48 4.0 7.0 0.00 0.00 0.00 39 1017.2
20230202003319 36 112 2.0 2.0 0.00 0.00 0.00 45 1017.2
20230202002319 35 166 7.0 9.0 0.00 0.00 0.00 45 1017.1
20230202001319 36 159 3.0 3.0 0.00 0.00 0.00 44 1017.1
20230202000320 37 142 2.0 3.0 0.00 0.00 0.00 43 1017.0
20230201235316 37 66 1.0 1.0 0.00 0.00 0.00 42 1016.9
20230201234336 38 121 3.0 5.0 0.00 0.00 0.00 43 1016.8
20230201233321 38 102 4.0 8.0 0.00 0.00 0.00 44 1016.8
20230201232320 39 38 6.0 9.0 0.00 0.00 0.00 43 1016.6
20230201231320 41 39 6.0 10.0 0.00 0.00 0.00 42 1016.4
20230201230320 43 178 2.0 4.0 0.00 0.00 0.00 31 1016.2
20230201225321 44 288 3.0 5.0 0.00 0.00 0.00 33 1015.9
20230201224340 44 283 3.0 8.0 0.00 0.00 0.00 32 1015.8
20230201223318 44 25 5.0 8.0 0.00 0.00 0.00 35 1015.8
20230201222318 0 36 3.0 4.0 0.00 0.00 0.00
20230201221318 43 129 5.0 7.0 0.00 0.00 0.00 37 1015.5
20230201220318 44 80 2.0 5.0 0.00 0.00 0.00 36 1015.5
20230201215318 44 159 2.0 4.0 0.00 0.00 0.00 37 1015.4
20230201214338 45 30 4.0 6.0 0.00 0.00 0.00 28 1015.3
20230201213319 44 256 4.0 8.0 0.00 0.00 0.00 30 1015.2
20230201212319 44 267 4.0 7.0 0.00 0.00 0.00 30 1015.1
20230201211319 44 235 5.0 6.0 0.00 0.00 0.00 34 1015.1
20230201210319 44 17 4.0 7.0 0.00 0.00 0.00 36 1015.1
20230201205320 44 26 7.0 9.0 0.00 0.00 0.00 36 1015.0
20230201204317 44 122 3.0 7.0 0.00 0.00 0.00 36 1015.0
20230201203317 43 144 3.0 5.0 0.00 0.00 0.00 36 1014.9
20230201202337 42 134 3.0 4.0 0.00 0.00 0.00 38 1015.1
20230201201321 42 159 4.0 6.0 0.00 0.00 0.00 39 1015.1
20230201200320 41 133 4.0 6.0 0.00 0.00 0.00 41 1015.2
20230201195320 42 54 6.0 12.0 0.00 0.00 0.00 39 1015.3
20230201194321 41 138 3.0 7.0 0.00 0.00 0.00 39 1015.4
20230201193321 41 147 4.0 6.0 0.00 0.00 0.00 41 1015.6
20230201192321 41 38 8.0 11.0 0.00 0.00 0.00 37 1015.7
20230201191318 41 26 9.0 13.0 0.00 0.00 0.00 35 1015.9
20230201190319 40 118 6.0 8.0 0.00 0.00 0.00 38 1016.0
20230201185318 40 27 11.0 15.0 0.00 0.00 0.00 38 1016.1
20230201184339 41 131 6.0 8.0 0.00 0.00 0.00 40 1016.3
20230201183320 43 137 6.0 8.0 0.00 0.00 0.00 36 1016.3
20230201182339 43 161 4.0 6.0 0.00 0.00 0.00 36 1016.6
20230201181319 42 51 3.0 5.0 0.00 0.00 0.00 33 1016.8
20230201180319 41 98 2.0 4.0 0.00 0.00 0.00 36 1017.0
20230201175316 40 128 5.0 7.0 0.00 0.00 0.00 38 1017.0
20230201174319 39 128 3.0 6.0 0.00 0.00 0.00 35 1017.1
20230201173318 41 29 8.0 12.0 0.00 0.00 0.00 37 1017.1
20230201172320 0 230 2.0 4.0 0.00 0.00 0.00
20230201171317 40 6 6.0 9.0 0.00 0.00 0.00 36 1017.2
20230201170317 39 40 7.0 11.0 0.00 0.00 0.00 37 1017.1
20230201165317 39 355 5.0 11.0 0.00 0.00 0.00 35 1017.0
20230201164317 38 284 5.0 12.0 0.00 0.00 0.00 36 1016.8
20230201163317 38 244 4.0 7.0 0.00 0.00 0.00 37 1016.7
20230201162319 37 252 4.0 6.0 0.00 0.00 0.00 37 1016.6
20230201161339 37 199 4.0 7.0 0.00 0.00 0.00 38 1016.6
20230201160318 37 173 4.0 7.0 0.00 0.00 0.00 36 1016.8
20230201155318 35 242 2.0 4.0 0.00 0.00 0.00 37 1016.7
20230201154319 35 260 3.0 7.0 0.00 0.00 0.00 37 1016.6
20230201153318 34 259 3.0 7.0 0.00 0.00 0.00 38 1016.5
20230201152339 33 254 5.0 10.0 0.00 0.00 0.00 40 1016.4
20230201151340 32 252 4.0 9.0 0.00 0.00 0.00 40 1016.4
20230201150336 32 218 3.0 5.0 0.00 0.00 0.00 41 1016.4
20230201145319 32 205 4.0 6.0 0.00 0.00 0.00 42 1016.3
20230201144320 31 279 5.0 8.0 0.00 0.00 0.00 43 1016.0
20230201143319 31 260 4.0 9.0 0.00 0.00 0.00 42 1015.9
20230201142319 31 287 4.0 9.0 0.00 0.00 0.00 44 1015.7
20230201141317 31 271 6.0 10.0 0.00 0.00 0.00 44 1015.6
20230201140317 31 205 3.0 9.0 0.00 0.00 0.00 40 1015.8
20230201135317 30 163 2.0 3.0 0.00 0.00 0.00 39 1016.1
20230201134320 29 198 2.0 5.0 0.00 0.00 0.00 40 1016.3
20230201133320 30 137 0.0 1.0 0.00 0.00 0.00 41 1016.3
20230201132337 30 162 2.0 5.0 0.00 0.00 0.00 40 1016.2
20230201131317 30 94 0.0 1.0 0.00 0.00 0.00 39 1016.2
20230201130318 30 247 3.0 4.0 0.00 0.00 0.00 42 1016.2
20230201125318 30 190 2.0 4.0 0.00 0.00 0.00 41 1016.1
20230201124318 30 256 1.0 2.0 0.00 0.00 0.00 39 1016.1
20230201123319 31 45 1.0 3.0 0.00 0.00 0.00 39 1015.8
20230201122318 31 51 2.0 4.0 0.00 0.00 0.00 36 1015.6
20230201121318 30 243 1.0 3.0 0.00 0.00 0.00 39 1015.5
20230201120318 29 167 1.0 2.0 0.00 0.00 0.00 43 1015.5
20230201115319 29 250 2.0 3.0 0.00 0.00 0.00 45 1015.3
20230201114319 30 260 2.0 3.0 0.00 0.00 0.00 42 1015.1
20230201113337 30 256 2.0 4.0 0.00 0.00 0.00 42 1014.9
20230201112320 30 195 3.0 5.0 0.00 0.00 0.00 44 1015.1
20230201111316 30 280 3.0 5.0 0.00 0.00 0.00 42 1015.0
20230201110317 30 11 3.0 7.0 0.00 0.00 0.00 44 1015.0
20230201105422 30 170 3.0 5.0 0.00 0.00 0.00 42 1015.1
20230201104320 30 262 3.0 5.0 0.00 0.00 0.00 43 1015.1
20230201103318 30 7 2.0 3.0 0.00 0.00 0.00 45 1015.2
20230201102318 30 120 2.0 4.0 0.00 0.00 0.00 42 1015.2
20230201101318 30 55 4.0 6.0 0.00 0.00 0.00 41 1015.2
20230201100318 29 219 2.0 3.0 0.00 0.00 0.00 43 1015.3
20230201095318 30 185 1.0 3.0 0.00 0.00 0.00 40 1015.1
20230201094319 28 187 2.0 6.0 0.00 0.00 0.00 43 1015.4
20230201093318 27 216 1.0 2.0 0.00 0.00 0.00 45 1015.4
20230201092318 26 179 1.0 2.0 0.00 0.00 0.00 45 1015.4
20230201091319 23 222 1.0 2.0 0.00 0.00 0.00 47 1015.6
20230201090319 22 258 1.0 2.0 0.00 0.00 0.00 49 1015.8
20230201085319 22 217 0.0 1.0 0.00 0.00 0.00 50 1015.8
20230201084319 22 202 0.0 1.0 0.00 0.00 0.00 50 1015.8
20230201083319 22 315 0.0 1.0 0.00 0.00 0.00 50 1015.8
20230201082319 22 94 0.0 2.0 0.00 0.00 0.00 50 1015.8
20230201081316 22 109 0.0 1.0 0.00 0.00 0.00 48 1015.9
20230201080319 22 0.0 0.0 0.00 0.00 0.00 48 1016.0
20230201075319 21 200 1.0 2.0 0.00 0.00 0.00 48 1016.1
20230201074320 20 183 1.0 1.0 0.00 0.00 0.00 53 1016.1
20230201073320 20 0.0 0.0 0.00 0.00 0.00 54 1016.1
20230201072320 20 0.0 0.0 0.00 0.00 0.00 53 1016.1
20230201071320 20 296 0.0 1.0 0.00 0.00 0.00 54 1016.1
20230201070317 20 184 0.0 0.0 0.00 0.00 0.00 53 1016.1
20230201065317 20 251 1.0 1.0 0.00 0.00 0.00 55 1016.0
20230201064357 20 0.0 0.0 0.00 0.00 0.00 53 1016.1
20230201063318 20 0.0 0.0 0.00 0.00 0.00 54 1016.0
20230201062318 19 62 0.0 2.0 0.00 0.00 0.00 55 1016.1
20230201061338 18 253 1.0 1.0 0.00 0.00 0.00 60 1016.2
20230201060319 18 258 2.0 2.0 0.00 0.00 0.00 62 1016.3
20230201055338 16 217 1.0 1.0 0.00 0.00 0.00 65 1016.3
20230201054319 16 255 1.0 1.0 0.00 0.00 0.00 63 1016.4
20230201053340 17 270 2.0 2.0 0.00 0.00 0.00 66 1016.3
20230201052319 17 269 2.0 2.0 0.00 0.00 0.00 63 1016.3
20230201051316 17 260 1.0 1.0 0.00 0.00 0.00 65 1016.3
20230201050319 18 228 1.0 1.0 0.00 0.00 0.00 64 1016.3
20230201045339 18 114 0.0 1.0 0.00 0.00 0.00 62 1016.2
20230201044320 19 289 0.0 1.0 0.00 0.00 0.00 60 1016.4
20230201043317 19 31 1.0 2.0 0.00 0.00 0.00 62 1016.2
20230201042337 18 239 1.0 1.0 0.00 0.00 0.00 64 1016.1
20230201041317 19 246 0.0 1.0 0.00 0.00 0.00 61 1016.0
20230201040318 19 213 2.0 3.0 0.00 0.00 0.00 61 1016.0
20230201035318 19 222 1.0 1.0 0.00 0.00 0.00 62 1015.9
20230201034340 19 0.0 0.0 0.00 0.00 0.00 61 1016.0
20230201033317 19 290 0.0 1.0 0.00 0.00 0.00 60 1015.9
20230201032318 19 0.0 0.0 0.00 0.00 0.00 60 1015.9
20230201031318 18 0.0 0.0 0.00 0.00 0.00 61 1015.8
20230201030358 17 282 0.0 1.0 0.00 0.00 0.00 60 1015.8
20230201025319 17 256 1.0 2.0 0.00 0.00 0.00 63 1015.8
20230201024318 18 274 2.0 3.0 0.00 0.00 0.00 63 1015.9
20230201023339 17 229 1.0 1.0 0.00 0.00 0.00 64 1015.7
20230201022339 19 0.0 0.0 0.00 0.00 0.00 65 1015.7
20230201021319 22 40 0.0 2.0 0.00 0.00 0.00 61 1015.5
20230201020340 23 220 1.0 2.0 0.00 0.00 0.00 58 1015.3